Wetterdaten: Montag, 09.03.2015
Datum Zeit Auen-Temp. A-Temp. 2 Luftfeuchte Luftfeuchte Luftdruck Regen Wind Richtung Richtung Taupunkt Windchill Windben
09.03.2015 00:00 -1,7 C 0,9 C 76 % 76 % 1025,4 hPa 0,0 l/m 0,0 km/h (0 Bft) W-NW 292 -5,4 C -3,0 C 0,0 km/h (0 Bft)
09.03.2015 00:05 -2,0 C 0,9 C 76 % 76 % 1025,4 hPa 0,0 l/m 0,0 km/h (0 Bft) W-NW 292 -5,6 C -3,1 C 0,0 km/h (0 Bft)
09.03.2015 00:10 -2,5 C 0,9 C 75 % 76 % 1025,4 hPa 0,0 l/m 0,0 km/h (0 Bft) W-NW 292 -6,3 C -3,4 C 0,0 km/h (0 Bft)
09.03.2015 00:15 -2,3 C 0,8 C 76 % 76 % 1025,2 hPa 0,0 l/m 0,0 km/h (0 Bft) W-SW 247 -5,9 C -3,6 C 0,0 km/h (0 Bft)
09.03.2015 00:20 -1,8 C 0,9 C 77 % 77 % 1025,2 hPa 0,0 l/m 0,0 km/h (0 Bft) S-SO 157 -5,3 C -3,6 C 0,0 km/h (0 Bft)
09.03.2015 00:25 -1,9 C 0,9 C 77 % 77 % 1025,2 hPa 0,0 l/m 0,0 km/h (0 Bft) N-NW 337 -5,4 C -3,3 C 0,0 km/h (0 Bft)
09.03.2015 00:30 -2,4 C 0,9 C 76 % 76 % 1025,2 hPa 0,0 l/m 0,0 km/h (0 Bft) S-SO 157 -6,0 C -3,5 C 2,1 km/h (1 Bft)
09.03.2015 00:35 -1,1 C 0,9 C 78 % 77 % 1025,2 hPa 0,0 l/m 1,3 km/h (1 Bft) S 180 -4,4 C -3,3 C 4,7 km/h (1 Bft)
09.03.2015 00:40 -0,6 C 0,9 C 78 % 77 % 1025,2 hPa 0,0 l/m 2,4 km/h (1 Bft) SO 135 -3,9 C -2,4 C 7,6 km/h (2 Bft)
09.03.2015 00:45 -1,3 C 0,9 C 76 % 77 % 1025,2 hPa 0,0 l/m 1,8 km/h (1 Bft) O-NO 67 -5,0 C -2,2 C 0,0 km/h (0 Bft)
09.03.2015 00:50 -1,7 C 0,9 C 76 % 76 % 1025,2 hPa 0,0 l/m 0,5 km/h (0 Bft) NO 45 -5,4 C -2,5 C 0,0 km/h (0 Bft)
09.03.2015 00:55 -2,1 C 0,9 C 76 % 76 % 1025,2 hPa 0,0 l/m 0,3 km/h (0 Bft) N-NO 22 -5,7 C -2,7 C 0,0 km/h (0 Bft)
09.03.2015 01:00 -2,3 C 0,9 C 76 % 76 % 1025,2 hPa 0,0 l/m 0,0 km/h (0 Bft) NO 45 -5,9 C -3,2 C 0,0 km/h (0 Bft)
09.03.2015 01:05 -2,0 C 0,9 C 77 % 76 % 1025,2 hPa 0,0 l/m 0,0 km/h (0 Bft) SO 135 -5,5 C -3,3 C 0,0 km/h (0 Bft)
09.03.2015 01:10 -1,9 C 0,9 C 77 % 77 % 1025,2 hPa 0,0 l/m 0,0 km/h (0 Bft) SW 225 -5,4 C -3,2 C 0,0 km/h (0 Bft)
09.03.2015 01:15 -2,1 C 0,9 C 76 % 77 % 1025,1 hPa 0,0 l/m 0,0 km/h (0 Bft) W-SW 247 -5,7 C -3,3 C 0,0 km/h (0 Bft)
09.03.2015 01:20 -2,0 C 0,9 C 77 % 77 % 1025,1 hPa 0,0 l/m 0,2 km/h (0 Bft) W-SW 247 -5,5 C -3,4 C 0,0 km/h (0 Bft)
09.03.2015 01:25 -2,2 C 0,9 C 77 % 77 % 1025,1 hPa 0,0 l/m 0,2 km/h (0 Bft) N-NO 22 -5,7 C -3,5 C 0,0 km/h (0 Bft)
09.03.2015 01:30 -2,7 C 0,8 C 76 % 77 % 1025,1 hPa 0,0 l/m 0,0 km/h (0 Bft) NO 45 -6,3 C -3,7 C 0,0 km/h (0 Bft)
09.03.2015 01:35 -2,1 C 0,8 C 77 % 77 % 1025,2 hPa 0,0 l/m 0,3 km/h (0 Bft) O-SO 112 -5,6 C -3,8 C 1,9 km/h (1 Bft)
09.03.2015 01:40 -1,4 C 0,9 C 78 % 78 % 1025,2 hPa 0,0 l/m 1,3 km/h (1 Bft) O-SO 112 -4,7 C -3,2 C 0,0 km/h (0 Bft)
09.03.2015 01:45 -1,5 C 0,9 C 77 % 77 % 1025,2 hPa 0,0 l/m 1,0 km/h (0 Bft) O-NO 67 -5,0 C -2,9 C 0,0 km/h (0 Bft)
09.03.2015 01:50 -2,1 C 0,9 C 77 % 77 % 1025,2 hPa 0,0 l/m 0,0 km/h (0 Bft) N-NO 22 -5,6 C -3,0 C 0,0 km/h (0 Bft)
09.03.2015 01:55 -2,4 C 0,9 C 76 % 77 % 1025,2 hPa 0,0 l/m 0,0 km/h (0 Bft) O-NO 67 -6,0 C -3,2 C 0,0 km/h (0 Bft)
09.03.2015 02:00 -2,7 C 0,8 C 76 % 77 % 1025,2 hPa 0,0 l/m 0,0 km/h (0 Bft) NO 45 -6,3 C -3,6 C 0,0 km/h (0 Bft)
09.03.2015 02:05 -2,9 C 0,8 C 76 % 77 % 1025,2 hPa 0,0 l/m 0,0 km/h (0 Bft) O-NO 67 -6,5 C -3,8 C 0,0 km/h (0 Bft)
09.03.2015 02:10 -2,3 C 0,8 C 78 % 77 % 1025,2 hPa 0,0 l/m 0,5 km/h (0 Bft) S 180 -5,6 C -4,0 C 2,4 km/h (1 Bft)
09.03.2015 02:15 -2,1 C 0,8 C 78 % 78 % 1025,1 hPa 0,0 l/m 0,8 km/h (0 Bft) S-SO 157 -5,4 C -3,7 C 1,9 km/h (1 Bft)
09.03.2015 02:20 -1,6 C 0,9 C 78 % 78 % 1025,1 hPa 0,0 l/m 0,5 km/h (0 Bft) SO 135 -4,9 C -3,3 C 0,0 km/h (0 Bft)
09.03.2015 02:25 -1,8 C 0,9 C 77 % 77 % 1025,1 hPa 0,0 l/m 0,2 km/h (0 Bft) N-NO 22 -5,3 C -3,1 C 0,0 km/h (0 Bft)
09.03.2015 02:30 -2,6 C 0,8 C 76 % 77 % 1025,1 hPa 0,0 l/m 0,0 km/h (0 Bft) NO 45 -6,2 C -3,4 C 0,0 km/h (0 Bft)
09.03.2015 02:35 -2,9 C 0,8 C 76 % 77 % 1024,9 hPa 0,0 l/m 0,0 km/h (0 Bft) NO 45 -6,5 C -3,6 C 0,0 km/h (0 Bft)
09.03.2015 02:40 -3,0 C 0,8 C 76 % 77 % 1024,9 hPa 0,0 l/m 0,0 km/h (0 Bft) O-NO 67 -6,6 C -4,1 C 0,0 km/h (0 Bft)
09.03.2015 02:45 -3,1 C 0,8 C 76 % 77 % 1024,9 hPa 0,0 l/m 0,0 km/h (0 Bft) N-NO 22 -6,7 C -4,2 C 0,0 km/h (0 Bft)
09.03.2015 02:50 -2,8 C 0,8 C 77 % 77 % 1024,9 hPa 0,0 l/m 0,0 km/h (0 Bft) SW 225 -6,3 C -4,4 C 0,0 km/h (0 Bft)
09.03.2015 02:55 -2,0 C 0,8 C 78 % 78 % 1025,4 hPa 0,0 l/m 0,8 km/h (0 Bft) SO 135 -5,3 C -4,2 C 7,6 km/h (2 Bft)
09.03.2015 03:00 -1,0 C 0,9 C 78 % 78 % 1025,4 hPa 0,0 l/m 1,8 km/h (1 Bft) SO 135 -4,3 C -3,3 C 3,9 km/h (1 Bft)
09.03.2015 03:05 -0,8 C 0,9 C 78 % 78 % 1025,4 hPa 0,0 l/m 2,4 km/h (1 Bft) O-SO 112 -4,1 C -3,0 C 3,7 km/h (1 Bft)
09.03.2015 03:10 -0,9 C 0,9 C 75 % 76 % 1025,4 hPa 0,0 l/m 2,6 km/h (1 Bft) N-NO 22 -4,8 C -1,9 C 0,0 km/h (0 Bft)
09.03.2015 03:15 -2,2 C 0,9 C 74 % 75 % 1025,4 hPa 0,0 l/m 1,3 km/h (1 Bft) O-NO 67 -6,2 C -2,0 C 0,0 km/h (0 Bft)
09.03.2015 03:20 -1,6 C 0,9 C 75 % 76 % 1025,4 hPa 0,0 l/m 0,3 km/h (0 Bft) S-SO 157 -5,4 C -2,5 C 2,9 km/h (1 Bft)
09.03.2015 03:25 -0,1 C 0,9 C 75 % 76 % 1025,4 hPa 0,0 l/m 1,1 km/h (1 Bft) SW 225 -4,0 C -1,9 C 3,5 km/h (1 Bft)
09.03.2015 03:30 0,6 C 0,9 C 73 % 74 % 1025,4 hPa 0,0 l/m 2,3 km/h (1 Bft) SO 135 -3,7 C -0,8 C 3,4 km/h (1 Bft)
09.03.2015 03:35 -0,5 C 0,9 C 71 % 73 % 1024,9 hPa 0,0 l/m 1,9 km/h (1 Bft) NO 45 -5,1 C -0,7 C 0,0 km/h (0 Bft)
09.03.2015 03:40 -0,4 C 0,9 C 72 % 74 % 1024,9 hPa 0,0 l/m 1,4 km/h (1 Bft) S-SO 157 -4,8 C -1,6 C 4,7 km/h (1 Bft)
09.03.2015 03:45 1,0 C 0,9 C 72 % 74 % 1024,9 hPa 0,0 l/m 2,3 km/h (1 Bft) S-SO 157 -3,5 C -0,8 C 4,0 km/h (1 Bft)
09.03.2015 03:50 2,0 C 0,9 C 68 % 73 % 1024,9 hPa 0,0 l/m 4,2 km/h (1 Bft) S-SO 157 -3,3 C -0,6 C 7,9 km/h (2 Bft)
09.03.2015 03:55 2,5 C 0,9 C 66 % 71 % 1025,2 hPa 0,0 l/m 4,7 km/h (1 Bft) SO 135 -3,2 C -0,2 C 9,3 km/h (2 Bft)
09.03.2015 04:00 1,8 C 0,9 C 64 % 68 % 1025,2 hPa 0,0 l/m 4,2 km/h (1 Bft) S 180 -4,3 C 0,5 C 2,7 km/h (1 Bft)
09.03.2015 04:05 1,3 C 0,9 C 64 % 67 % 1025,2 hPa 0,0 l/m 2,7 km/h (1 Bft) O-SO 112 -4,7 C 1,1 C 2,6 km/h (1 Bft)
09.03.2015 04:10 0,2 C 0,9 C 64 % 68 % 1025,2 hPa 0,0 l/m 1,8 km/h (1 Bft) O-SO 112 -5,8 C 0,1 C 2,7 km/h (1 Bft)
09.03.2015 04:15 -0,5 C 0,9 C 65 % 68 % 1025,2 hPa 0,0 l/m 1,9 km/h (1 Bft) O-SO 112 -6,3 C -0,4 C 3,5 km/h (1 Bft)
09.03.2015 04:20 -1,2 C 0,9 C 66 % 69 % 1025,2 hPa 0,0 l/m 1,3 km/h (1 Bft) O-NO 67 -6,7 C -1,3 C 0,0 km/h (0 Bft)
09.03.2015 04:25 -1,7 C 0,9 C 66 % 69 % 1025,2 hPa 0,0 l/m 0,5 km/h (0 Bft) O-NO 67 -7,2 C -2,0 C 0,0 km/h (0 Bft)
09.03.2015 04:30 -1,9 C 0,9 C 67 % 70 % 1025,2 hPa 0,0 l/m 0,0 km/h (0 Bft) O-NO 67 -7,2 C -2,6 C 0,0 km/h (0 Bft)
09.03.2015 04:35 -1,9 C 0,9 C 68 % 70 % 1025,6 hPa 0,0 l/m 0,0 km/h (0 Bft) SO 135 -7,0 C -2,9 C 0,0 km/h (0 Bft)
09.03.2015 04:40 -1,8 C 0,9 C 69 % 71 % 1025,6 hPa 0,0 l/m 0,3 km/h (0 Bft) O 90 -6,7 C -3,1 C 0,0 km/h (0 Bft)
09.03.2015 04:45 -2,0 C 0,9 C 69 % 71 % 1025,6 hPa 0,0 l/m 0,2 km/h (0 Bft) O-NO 67 -6,9 C -3,1 C 0,0 km/h (0 Bft)
09.03.2015 04:50 -1,8 C 0,9 C 71 % 72 % 1025,6 hPa 0,0 l/m 0,2 km/h (0 Bft) O 90 -6,3 C -3,2 C 0,0 km/h (0 Bft)
09.03.2015 04:55 -2,1 C 0,9 C 71 % 72 % 1026,0 hPa 0,0 l/m 0,2 km/h (0 Bft) O-NO 67 -6,6 C -3,2 C 0,0 km/h (0 Bft)
09.03.2015 05:00 -2,0 C 0,9 C 72 % 73 % 1026,0 hPa 0,0 l/m 0,2 km/h (0 Bft) O-SO 112 -6,4 C -3,2 C 0,0 km/h (0 Bft)
09.03.2015 05:05 -2,1 C 0,9 C 72 % 73 % 1026,0 hPa 0,0 l/m 0,0 km/h (0 Bft) SO 135 -6,5 C -3,3 C 0,0 km/h (0 Bft)
09.03.2015 05:10 -1,7 C 0,9 C 73 % 73 % 1026,0 hPa 0,0 l/m 0,2 km/h (0 Bft) O-SO 112 -5,9 C -3,2 C 0,0 km/h (0 Bft)
09.03.2015 05:15 -1,9 C 0,9 C 73 % 73 % 1025,9 hPa 0,0 l/m 0,2 km/h (0 Bft) O-NO 67 -6,1 C -2,9 C 0,0 km/h (0 Bft)
09.03.2015 05:20 -1,7 C 0,9 C 74 % 74 % 1025,9 hPa 0,0 l/m 0,8 km/h (0 Bft) O-SO 112 -5,7 C -2,9 C 2,3 km/h (1 Bft)
09.03.2015 05:25 -1,6 C 0,9 C 74 % 74 % 1025,9 hPa 0,0 l/m 1,3 km/h (1 Bft) SO 135 -5,6 C -2,6 C 0,0 km/h (0 Bft)
09.03.2015 05:30 -1,7 C 0,9 C 73 % 74 % 1025,9 hPa 0,0 l/m 0,6 km/h (0 Bft) O-NO 67 -5,9 C -2,6 C 0,0 km/h (0 Bft)
09.03.2015 05:35 -2,1 C 0,9 C 73 % 74 % 1025,5 hPa 0,0 l/m 0,0 km/h (0 Bft) O-NO 67 -6,3 C -2,7 C 0,0 km/h (0 Bft)
09.03.2015 05:40 -2,0 C 0,9 C 74 % 74 % 1025,5 hPa 0,0 l/m 0,0 km/h (0 Bft) O-NO 67 -6,0 C -2,9 C 0,0 km/h (0 Bft)
09.03.2015 05:45 -2,3 C 0,8 C 73 % 74 % 1025,5 hPa 0,0 l/m 0,0 km/h (0 Bft) O-NO 67 -6,5 C -3,1 C 0,0 km/h (0 Bft)
09.03.2015 05:50 -2,3 C 0,8 C 74 % 74 % 1025,5 hPa 0,0 l/m 0,0 km/h (0 Bft) O-NO 67 -6,3 C -3,2 C 0,0 km/h (0 Bft)
09.03.2015 05:55 -2,3 C 0,8 C 74 % 75 % 1026,1 hPa 0,0 l/m 0,2 km/h (0 Bft) W-NW 292 -6,3 C -3,2 C 1,8 km/h (1 Bft)
09.03.2015 06:00 -2,1 C 0,9 C 75 % 75 % 1026,1 hPa 0,0 l/m 0,2 km/h (0 Bft) S-SO 157 -5,9 C -3,2 C 0,0 km/h (0 Bft)
09.03.2015 06:05 -1,9 C 0,9 C 75 % 75 % 1026,1 hPa 0,0 l/m 0,2 km/h (0 Bft) SO 135 -5,7 C -3,1 C 0,0 km/h (0 Bft)
09.03.2015 06:10 -2,3 C 0,9 C 74 % 75 % 1026,1 hPa 0,0 l/m 0,0 km/h (0 Bft) O 90 -6,3 C -3,2 C 0,0 km/h (0 Bft)
09.03.2015 06:15 -2,4 C 0,8 C 74 % 75 % 1025,9 hPa 0,0 l/m 0,0 km/h (0 Bft) O-NO 67 -6,4 C -3,3 C 0,0 km/h (0 Bft)
09.03.2015 06:20 -2,4 C 0,9 C 75 % 75 % 1025,9 hPa 0,0 l/m 0,3 km/h (0 Bft) W-SW 247 -6,2 C -3,3 C 0,0 km/h (0 Bft)
09.03.2015 06:25 -2,3 C 0,8 C 75 % 76 % 1025,9 hPa 0,0 l/m 0,3 km/h (0 Bft) N-NO 22 -6,1 C -3,2 C 0,0 km/h (0 Bft)
09.03.2015 06:30 -2,0 C 0,9 C 76 % 76 % 1025,9 hPa 0,0 l/m 0,0 km/h (0 Bft) O-SO 112 -5,6 C -3,3 C 0,0 km/h (0 Bft)
09.03.2015 06:35 -2,1 C 0,9 C 76 % 76 % 1026,1 hPa 0,0 l/m 0,2 km/h (0 Bft) SO 135 -5,7 C -3,1 C 0,0 km/h (0 Bft)
09.03.2015 06:40 -1,6 C 0,9 C 77 % 76 % 1026,1 hPa 0,0 l/m 0,3 km/h (0 Bft) N-NW 337 -5,1 C -2,7 C 0,0 km/h (0 Bft)
09.03.2015 06:45 -2,0 C 0,9 C 76 % 76 % 1026,1 hPa 0,0 l/m 0,2 km/h (0 Bft) NW 315 -5,6 C -2,7 C 0,0 km/h (0 Bft)
09.03.2015 06:50 -2,2 C 0,9 C 76 % 76 % 1026,1 hPa 0,0 l/m 0,0 km/h (0 Bft) NW 315 -5,8 C -2,9 C 0,0 km/h (0 Bft)
09.03.2015 06:55 -2,1 C 0,9 C 76 % 76 % 1026,2 hPa 0,0 l/m 0,0 km/h (0 Bft) O-NO 67 -5,7 C -3,0 C 0,0 km/h (0 Bft)
09.03.2015 07:00 -2,1 C 0,9 C 76 % 76 % 1026,2 hPa 0,0 l/m 0,0 km/h (0 Bft) W-SW 247 -5,7 C -2,8 C 0,0 km/h (0 Bft)
09.03.2015 07:05 -2,0 C 0,9 C 76 % 76 % 1026,2 hPa 0,0 l/m 0,0 km/h (0 Bft) W-SW 247 -5,6 C -2,8 C 0,0 km/h (0 Bft)
09.03.2015 07:10 -1,9 C 0,9 C 76 % 76 % 1026,2 hPa 0,0 l/m 0,0 km/h (0 Bft) W 270 -5,6 C -2,6 C 0,0 km/h (0 Bft)
09.03.2015 07:15 -2,0 C 0,9 C 76 % 76 % 1026,4 hPa 0,0 l/m 0,0 km/h (0 Bft) W-SW 247 -5,6 C -2,6 C 0,0 km/h (0 Bft)
09.03.2015 07:20 -1,9 C 0,9 C 76 % 76 % 1026,4 hPa 0,0 l/m 0,0 km/h (0 Bft) W 270 -5,6 C -2,5 C 0,0 km/h (0 Bft)
09.03.2015 07:25 -1,9 C 0,9 C 76 % 76 % 1026,4 hPa 0,0 l/m 0,0 km/h (0 Bft) W 270 -5,6 C -2,4 C 0,0 km/h (0 Bft)
09.03.2015 07:30 -1,6 C 0,9 C 76 % 76 % 1026,4 hPa 0,0 l/m 0,0 km/h (0 Bft) W 270 -5,3 C -2,3 C 0,0 km/h (0 Bft)
09.03.2015 07:35 -1,5 C 0,9 C 76 % 76 % 1026,5 hPa 0,0 l/m 0,0 km/h (0 Bft) W 270 -5,2 C -2,2 C 0,0 km/h (0 Bft)
09.03.2015 07:40 -1,1 C 0,9 C 76 % 76 % 1026,5 hPa 0,0 l/m 0,0 km/h (0 Bft) NO 45 -4,8 C -1,9 C 0,0 km/h (0 Bft)
09.03.2015 07:45 -0,9 C 0,9 C 76 % 76 % 1026,5 hPa 0,0 l/m 0,2 km/h (0 Bft) SW 225 -4,6 C -1,6 C 4,0 km/h (1 Bft)
09.03.2015 07:50 -0,8 C 0,9 C 76 % 76 % 1026,5 hPa 0,0 l/m 0,2 km/h (0 Bft) O-NO 67 -4,5 C -1,3 C 0,0 km/h (0 Bft)
09.03.2015 07:55 -0,2 C 0,9 C 76 % 76 % 1026,6 hPa 0,0 l/m 0,3 km/h (0 Bft) O-NO 67 -3,9 C -0,9 C 0,0 km/h (0 Bft)
09.03.2015 08:00 -0,1 C 0,9 C 75 % 75 % 1026,6 hPa 0,0 l/m 0,0 km/h (0 Bft) N-NO 22 -4,0 C -0,5 C 0,0 km/h (0 Bft)
09.03.2015 08:05 -0,1 C 0,9 C 75 % 75 % 1026,6 hPa 0,0 l/m 0,0 km/h (0 Bft) N 360 -4,0 C -0,4 C 0,0 km/h (0 Bft)
09.03.2015 08:10 0,0 C 0,9 C 75 % 75 % 1026,6 hPa 0,0 l/m 0,0 km/h (0 Bft) N-NO 22 -3,9 C -0,1 C 0,0 km/h (0 Bft)
09.03.2015 08:15 0,0 C 0,9 C 74 % 75 % 1027,0 hPa 0,0 l/m 0,0 km/h (0 Bft) N-NO 22 -4,1 C 0,0 C 0,0 km/h (0 Bft)
09.03.2015 08:20 0,5 C 0,9 C 74 % 75 % 1027,0 hPa 0,0 l/m 0,2 km/h (0 Bft) O-SO 112 -3,6 C 0,3 C 0,0 km/h (0 Bft)
09.03.2015 08:25 0,7 C 0,9 C 74 % 74 % 1027,0 hPa 0,0 l/m 0,2 km/h (0 Bft) NO 45 -3,4 C 0,7 C 0,0 km/h (0 Bft)
09.03.2015 08:30 0,7 C 0,9 C 73 % 74 % 1027,0 hPa 0,0 l/m 0,0 km/h (0 Bft) N-NO 22 -3,6 C 1,1 C 0,0 km/h (0 Bft)
09.03.2015 08:35 0,6 C 0,9 C 73 % 74 % 1027,3 hPa 0,0 l/m 0,0 km/h (0 Bft) N-NO 22 -3,7 C 1,2 C 0,0 km/h (0 Bft)
09.03.2015 08:40 0,9 C 0,9 C 73 % 74 % 1027,3 hPa 0,0 l/m 0,0 km/h (0 Bft) N-NO 22 -3,4 C 1,4 C 0,0 km/h (0 Bft)
09.03.2015 08:45 0,9 C 0,8 C 72 % 73 % 1027,3 hPa 0,0 l/m 0,0 km/h (0 Bft) N-NO 22 -3,6 C 1,5 C 0,0 km/h (0 Bft)
09.03.2015 08:50 1,1 C 0,8 C 72 % 73 % 1027,3 hPa 0,0 l/m 0,0 km/h (0 Bft) N-NO 22 -3,4 C 1,9 C 0,0 km/h (0 Bft)
09.03.2015 08:55 1,6 C 0,8 C 72 % 73 % 1027,4 hPa 0,0 l/m 0,0 km/h (0 Bft) O-SO 112 -2,9 C 2,1 C 0,0 km/h (0 Bft)
09.03.2015 09:00 2,3 C 0,8 C 70 % 73 % 1027,4 hPa 0,0 l/m 0,0 km/h (0 Bft) O-SO 112 -2,6 C 3,6 C 0,0 km/h (0 Bft)
09.03.2015 09:05 2,9 C 0,8 C 70 % 72 % 1027,4 hPa 0,0 l/m 0,0 km/h (0 Bft) O-SO 112 -2,0 C 5,2 C 0,0 km/h (0 Bft)
09.03.2015 09:10 3,4 C 0,9 C 66 % 72 % 1027,4 hPa 0,0 l/m 0,0 km/h (0 Bft) O-SO 112 -2,3 C 6,8 C 0,0 km/h (0 Bft)
09.03.2015 09:15 4,1 C 0,9 C 66 % 71 % 1027,8 hPa 0,0 l/m 0,0 km/h (0 Bft) O-SO 112 -1,7 C 7,5 C 0,0 km/h (0 Bft)
09.03.2015 09:20 5,3 C 0,9 C 66 % 70 % 1027,8 hPa 0,0 l/m 0,0 km/h (0 Bft) O-SO 112 -0,5 C 9,0 C 0,0 km/h (0 Bft)
09.03.2015 09:25 5,9 C 0,9 C 64 % 69 % 1027,8 hPa 0,0 l/m 0,0 km/h (0 Bft) O-SO 112 -0,4 C 10,3 C 0,0 km/h (0 Bft)
09.03.2015 09:30 6,9 C 0,8 C 61 % 68 % 1027,8 hPa 0,0 l/m 0,0 km/h (0 Bft) O-SO 112 -0,1 C 12,1 C 0,0 km/h (0 Bft)
09.03.2015 09:35 7,4 C 0,8 C 60 % 68 % 1028,3 hPa 0,0 l/m 0,0 km/h (0 Bft) O-SO 112 0,2 C 13,5 C 0,0 km/h (0 Bft)
09.03.2015 09:40 7,8 C 0,9 C 59 % 67 % 1028,3 hPa 0,0 l/m 0,0 km/h (0 Bft) O-SO 112 0,3 C 13,9 C 0,0 km/h (0 Bft)
09.03.2015 09:45 8,4 C 0,9 C 59 % 67 % 1028,3 hPa 0,0 l/m 0,0 km/h (0 Bft) O-SO 112 0,9 C 13,6 C 0,0 km/h (0 Bft)
09.03.2015 09:50 9,1 C 0,9 C 58 % 66 % 1028,3 hPa 0,0 l/m 0,0 km/h (0 Bft) O-SO 112 1,3 C 14,3 C 0,0 km/h (0 Bft)
09.03.2015 09:55 9,7 C 0,9 C 56 % 65 % 1028,9 hPa 0,0 l/m 0,0 km/h (0 Bft) O-SO 112 1,4 C 15,2 C 0,0 km/h (0 Bft)
09.03.2015 10:00 10,9 C 0,9 C 55 % 64 % 1028,9 hPa 0,0 l/m 0,0 km/h (0 Bft) O-SO 112 2,2 C 16,1 C 0,0 km/h (0 Bft)
09.03.2015 10:05 10,9 C 0,8 C 52 % 62 % 1028,9 hPa 0,0 l/m 0,0 km/h (0 Bft) O-NO 67 1,4 C 16,7 C 0,0 km/h (0 Bft)
09.03.2015 10:10 11,1 C 0,8 C 49 % 60 % 1028,9 hPa 0,0 l/m 0,0 km/h (0 Bft) O-NO 67 0,8 C 16,4 C 0,0 km/h (0 Bft)
09.03.2015 10:15 10,5 C 0,8 C 49 % 60 % 1029,2 hPa 0,0 l/m 0,0 km/h (0 Bft) O-NO 67 0,2 C 16,0 C 0,0 km/h (0 Bft)
09.03.2015 10:20 11,7 C 0,8 C 49 % 59 % 1029,2 hPa 0,0 l/m 0,0 km/h (0 Bft) O-NO 67 1,3 C 15,9 C 0,0 km/h (0 Bft)
09.03.2015 10:25 12,6 C 0,9 C 48 % 59 % 1029,2 hPa 0,0 l/m 0,0 km/h (0 Bft) O-NO 67 1,9 C 17,6 C 0,0 km/h (0 Bft)
09.03.2015 10:30 13,7 C 0,9 C 46 % 58 % 1029,2 hPa 0,0 l/m 0,0 km/h (0 Bft) O-NO 67 2,3 C 19,0 C 0,0 km/h (0 Bft)
09.03.2015 10:35 13,4 C 0,9 C 43 % 57 % 1029,9 hPa 0,0 l/m 0,0 km/h (0 Bft) NO 45 1,1 C 19,9 C 0,0 km/h (0 Bft)
09.03.2015 10:40 14,0 C 0,9 C 42 % 56 % 1029,9 hPa 0,0 l/m 0,0 km/h (0 Bft) O-NO 67 1,3 C 20,4 C 0,0 km/h (0 Bft)
09.03.2015 10:45 14,1 C 0,9 C 42 % 55 % 1029,9 hPa 0,0 l/m 0,0 km/h (0 Bft) NO 45 1,4 C 20,7 C 0,0 km/h (0 Bft)
09.03.2015 10:50 14,4 C 0,9 C 38 % 53 % 1029,9 hPa 0,0 l/m 0,3 km/h (0 Bft) NO 45 0,3 C 20,9 C 0,0 km/h (0 Bft)
09.03.2015 10:55 14,4 C 0,9 C 38 % 53 % 1029,6 hPa 0,0 l/m 0,3 km/h (0 Bft) NO 45 0,3 C 20,6 C 0,0 km/h (0 Bft)
09.03.2015 11:00 15,1 C 0,9 C 38 % 53 % 1029,6 hPa 0,0 l/m 0,3 km/h (0 Bft) NO 45 0,9 C 21,0 C 0,0 km/h (0 Bft)
09.03.2015 11:05 16,0 C 0,9 C 38 % 53 % 1029,6 hPa 0,0 l/m 0,3 km/h (0 Bft) N 360 1,7 C 22,1 C 0,0 km/h (0 Bft)
09.03.2015 11:10 16,3 C 0,9 C 36 % 51 % 1029,6 hPa 0,0 l/m 0,3 km/h (0 Bft) W-NW 292 1,2 C 23,5 C 3,7 km/h (1 Bft)
09.03.2015 11:15 15,0 C 0,8 C 33 % 49 % 1029,2 hPa 0,0 l/m 1,1 km/h (1 Bft) NW 315 -1,1 C 22,5 C 3,9 km/h (1 Bft)
09.03.2015 11:20 15,9 C 0,8 C 35 % 49 % 1029,2 hPa 0,0 l/m 1,3 km/h (1 Bft) W-SW 247 0,5 C 21,9 C 1,6 km/h (1 Bft)
09.03.2015 11:25 16,7 C 0,9 C 35 % 50 % 1029,2 hPa 0,0 l/m 0,6 km/h (0 Bft) W 270 1,2 C 22,6 C 0,0 km/h (0 Bft)
09.03.2015 11:30 17,3 C 0,9 C 36 % 49 % 1029,2 hPa 0,0 l/m 0,2 km/h (0 Bft) W-SW 247 2,1 C 23,5 C 0,0 km/h (0 Bft)
09.03.2015 11:35 17,9 C 0,9 C 35 % 49 % 1028,8 hPa 0,0 l/m 0,2 km/h (0 Bft) W-SW 247 2,2 C 24,2 C 0,0 km/h (0 Bft)
09.03.2015 11:40 17,2 C 0,9 C 34 % 49 % 1028,8 hPa 0,0 l/m 0,0 km/h (0 Bft) W 270 1,2 C 23,9 C 1,6 km/h (1 Bft)
09.03.2015 11:45 16,6 C 0,9 C 32 % 47 % 1028,8 hPa 0,0 l/m 0,6 km/h (0 Bft) W-NW 292 -0,2 C 23,6 C 3,7 km/h (1 Bft)
09.03.2015 11:50 16,5 C 0,9 C 32 % 44 % 1028,8 hPa 0,0 l/m 2,3 km/h (1 Bft) W 270 -0,2 C 22,2 C 0,0 km/h (0 Bft)
09.03.2015 11:55 16,3 C 0,9 C 32 % 44 % 1029,1 hPa 0,0 l/m 2,1 km/h (1 Bft) N-NW 337 -0,4 C 22,1 C 0,0 km/h (0 Bft)
09.03.2015 12:00 16,2 C 0,9 C 32 % 44 % 1029,1 hPa 0,0 l/m 1,3 km/h (1 Bft) NW 315 -0,5 C 21,5 C 2,3 km/h (1 Bft)
09.03.2015 12:05 16,3 C 0,8 C 32 % 45 % 1029,1 hPa 0,0 l/m 1,4 km/h (1 Bft) W 270 -0,4 C 21,7 C 0,0 km/h (0 Bft)
09.03.2015 12:10 15,9 C 0,9 C 30 % 44 % 1029,1 hPa 0,0 l/m 1,3 km/h (1 Bft) N-NW 337 -1,6 C 21,7 C 0,0 km/h (0 Bft)
09.03.2015 12:15 16,3 C 0,9 C 31 % 44 % 1029,5 hPa 0,0 l/m 1,8 km/h (1 Bft) W 270 -0,8 C 21,7 C 2,4 km/h (1 Bft)
09.03.2015 12:20 15,6 C 0,8 C 30 % 43 % 1029,5 hPa 0,0 l/m 2,6 km/h (1 Bft) W-SW 247 -1,9 C 21,3 C 4,2 km/h (1 Bft)
09.03.2015 12:25 15,3 C 0,9 C 30 % 43 % 1029,5 hPa 0,0 l/m 3,2 km/h (1 Bft) W 270 -2,2 C 20,7 C 3,1 km/h (1 Bft)
09.03.2015 12:30 15,3 C 0,9 C 30 % 43 % 1029,5 hPa 0,0 l/m 3,2 km/h (1 Bft) O-NO 67 -2,2 C 20,3 C 3,5 km/h (1 Bft)
09.03.2015 12:35 15,3 C 0,9 C 30 % 42 % 1029,4 hPa 0,0 l/m 3,4 km/h (1 Bft) W 270 -2,2 C 20,0 C 2,1 km/h (1 Bft)
09.03.2015 12:40 15,8 C 0,9 C 30 % 42 % 1029,4 hPa 0,0 l/m 2,9 km/h (1 Bft) W-SW 247 -1,7 C 20,3 C 4,8 km/h (1 Bft)
09.03.2015 12:45 15,8 C 0,9 C 30 % 42 % 1029,4 hPa 0,0 l/m 2,6 km/h (1 Bft) W 270 -1,7 C 20,3 C 2,9 km/h (1 Bft)
09.03.2015 12:50 16,1 C 0,9 C 31 % 42 % 1029,4 hPa 0,0 l/m 2,6 km/h (1 Bft) W-SW 247 -1,0 C 20,8 C 2,7 km/h (1 Bft)
09.03.2015 12:55 15,8 C 0,9 C 30 % 42 % 1029,4 hPa 0,0 l/m 2,3 km/h (1 Bft) W-SW 247 -1,7 C 20,8 C 3,1 km/h (1 Bft)
09.03.2015 13:00 15,6 C 0,9 C 30 % 42 % 1029,4 hPa 0,0 l/m 2,4 km/h (1 Bft) W-SW 247 -1,9 C 20,8 C 1,9 km/h (1 Bft)
09.03.2015 13:05 15,7 C 0,9 C 30 % 41 % 1029,4 hPa 0,0 l/m 2,4 km/h (1 Bft) W-SW 247 -1,8 C 20,8 C 3,2 km/h (1 Bft)
09.03.2015 13:10 15,8 C 0,9 C 30 % 42 % 1029,4 hPa 0,0 l/m 2,4 km/h (1 Bft) W-SW 247 -1,7 C 20,9 C 3,5 km/h (1 Bft)
09.03.2015 13:15 16,0 C 0,9 C 30 % 42 % 1029,2 hPa 0,0 l/m 2,4 km/h (1 Bft) SW 225 -1,6 C 21,0 C 2,7 km/h (1 Bft)
09.03.2015 13:20 16,0 C 0,9 C 30 % 42 % 1029,2 hPa 0,0 l/m 2,4 km/h (1 Bft) W 270 -1,6 C 21,1 C 3,7 km/h (1 Bft)
09.03.2015 13:25 16,3 C 0,9 C 31 % 43 % 1029,2 hPa 0,0 l/m 2,3 km/h (1 Bft) SW 225 -0,8 C 21,1 C 2,4 km/h (1 Bft)
09.03.2015 13:30 16,8 C 0,9 C 30 % 43 % 1029,2 hPa 0,0 l/m 1,9 km/h (1 Bft) W 270 -0,9 C 21,4 C 2,6 km/h (1 Bft)
09.03.2015 13:35 17,3 C 0,9 C 31 % 42 % 1029,0 hPa 0,0 l/m 1,6 km/h (1 Bft) S-SW 202 0,0 C 21,2 C 2,1 km/h (1 Bft)
09.03.2015 13:40 19,1 C 0,9 C 31 % 43 % 1029,0 hPa 0,0 l/m 0,5 km/h (0 Bft) SW 225 1,6 C 21,4 C 0,0 km/h (0 Bft)
09.03.2015 13:45 18,4 C 0,9 C 31 % 42 % 1029,0 hPa 0,0 l/m 0,3 km/h (0 Bft) S 180 1,0 C 21,2 C 0,0 km/h (0 Bft)
09.03.2015 13:50 17,7 C 0,9 C 30 % 42 % 1029,0 hPa 0,0 l/m 0,8 km/h (0 Bft) S-SW 202 -0,1 C 19,6 C 0,0 km/h (0 Bft)
09.03.2015 13:55 18,5 C 0,9 C 30 % 41 % 1028,4 hPa 0,0 l/m 1,0 km/h (0 Bft) S 180 0,6 C 19,0 C 2,4 km/h (1 Bft)
09.03.2015 14:00 17,8 C 0,9 C 30 % 42 % 1028,4 hPa 0,0 l/m 1,0 km/h (0 Bft) W 270 0,0 C 17,7 C 0,0 km/h (0 Bft)
09.03.2015 14:05 16,9 C 0,9 C 30 % 41 % 1028,4 hPa 0,0 l/m 1,6 km/h (1 Bft) N-NO 22 -0,8 C 17,4 C 5,0 km/h (1 Bft)
09.03.2015 14:10 16,7 C 1,0 C 30 % 41 % 1028,4 hPa 0,0 l/m 2,7 km/h (1 Bft) NW 315 -0,9 C 17,2 C 2,7 km/h (1 Bft)
09.03.2015 14:15 16,3 C 0,9 C 30 % 41 % 1027,9 hPa 0,0 l/m 3,2 km/h (1 Bft) NO 45 -1,3 C 17,5 C 3,4 km/h (1 Bft)
09.03.2015 14:20 15,9 C 0,9 C 30 % 42 % 1027,9 hPa 0,0 l/m 3,2 km/h (1 Bft) N-NO 22 -1,6 C 18,2 C 4,7 km/h (1 Bft)
09.03.2015 14:25 15,4 C 0,9 C 30 % 42 % 1027,9 hPa 0,0 l/m 3,7 km/h (1 Bft) N-NO 22 -2,1 C 18,4 C 0,0 km/h (0 Bft)
09.03.2015 14:30 15,6 C 0,9 C 30 % 42 % 1027,9 hPa 0,0 l/m 3,4 km/h (1 Bft) N-NW 337 -1,9 C 19,1 C 6,9 km/h (2 Bft)
09.03.2015 14:35 15,7 C 0,9 C 30 % 42 % 1027,6 hPa 0,0 l/m 2,9 km/h (1 Bft) NW 315 -1,8 C 19,1 C 5,8 km/h (2 Bft)
09.03.2015 14:40 15,3 C 0,9 C 30 % 41 % 1027,6 hPa 0,0 l/m 3,7 km/h (1 Bft) O-NO 67 -2,2 C 19,2 C 2,6 km/h (1 Bft)
09.03.2015 14:45 15,4 C 0,9 C 30 % 42 % 1027,6 hPa 0,0 l/m 3,2 km/h (1 Bft) N-NW 337 -2,1 C 19,2 C 6,1 km/h (2 Bft)
09.03.2015 14:50 15,1 C 0,9 C 30 % 41 % 1027,6 hPa 0,0 l/m 3,2 km/h (1 Bft) NO 45 -2,3 C 19,2 C 3,4 km/h (1 Bft)
09.03.2015 14:55 15,7 C 0,9 C 30 % 42 % 1027,4 hPa 0,0 l/m 2,6 km/h (1 Bft) NW 315 -1,8 C 19,4 C 2,7 km/h (1 Bft)
09.03.2015 15:00 15,7 C 0,9 C 30 % 42 % 1027,4 hPa 0,0 l/m 1,8 km/h (1 Bft) NO 45 -1,8 C 19,7 C 0,0 km/h (0 Bft)
09.03.2015 15:05 16,0 C 0,9 C 31 % 42 % 1027,4 hPa 0,0 l/m 1,8 km/h (1 Bft) NW 315 -1,1 C 20,1 C 3,7 km/h (1 Bft)
09.03.2015 15:10 16,0 C 0,9 C 31 % 41 % 1027,4 hPa 0,0 l/m 1,1 km/h (1 Bft) O-NO 67 -1,1 C 20,2 C 1,9 km/h (1 Bft)
09.03.2015 15:15 15,5 C 1,0 C 30 % 41 % 1027,0 hPa 0,0 l/m 1,4 km/h (1 Bft) N-NO 22 -2,0 C 20,2 C 2,7 km/h (1 Bft)
09.03.2015 15:20 15,3 C 0,9 C 30 % 41 % 1027,0 hPa 0,0 l/m 1,4 km/h (1 Bft) O-NO 67 -2,2 C 19,7 C 0,0 km/h (0 Bft)
09.03.2015 15:25 15,3 C 1,0 C 30 % 41 % 1027,0 hPa 0,0 l/m 1,3 km/h (1 Bft) N-NO 22 -2,2 C 19,8 C 2,1 km/h (1 Bft)
09.03.2015 15:30 15,1 C 1,0 C 30 % 41 % 1027,0 hPa 0,0 l/m 1,3 km/h (1 Bft) NO 45 -2,3 C 19,6 C 2,1 km/h (1 Bft)
09.03.2015 15:35 15,4 C 1,0 C 30 % 42 % 1026,8 hPa 0,0 l/m 1,3 km/h (1 Bft) N-NO 22 -2,1 C 19,6 C 0,0 km/h (0 Bft)
09.03.2015 15:40 14,2 C 0,9 C 30 % 41 % 1026,8 hPa 0,0 l/m 1,0 km/h (0 Bft) NO 45 -3,1 C 19,4 C 0,0 km/h (0 Bft)
09.03.2015 15:45 13,9 C 0,9 C 30 % 42 % 1026,8 hPa 0,0 l/m 0,6 km/h (0 Bft) N-NO 22 -3,4 C 18,9 C 0,0 km/h (0 Bft)
09.03.2015 15:50 13,3 C 0,9 C 30 % 42 % 1026,8 hPa 0,0 l/m 0,2 km/h (0 Bft) N-NO 22 -3,9 C 17,3 C 0,0 km/h (0 Bft)
09.03.2015 15:55 12,6 C 0,9 C 32 % 42 % 1026,7 hPa 0,0 l/m 0,2 km/h (0 Bft) NO 45 -3,6 C 16,9 C 0,0 km/h (0 Bft)
09.03.2015 16:00 12,1 C 0,9 C 32 % 42 % 1026,7 hPa 0,0 l/m 0,2 km/h (0 Bft) N-NO 22 -4,1 C 15,7 C 2,7 km/h (1 Bft)
09.03.2015 16:05 11,8 C 1,0 C 32 % 42 % 1026,7 hPa 0,0 l/m 0,3 km/h (0 Bft) NO 45 -4,3 C 14,4 C 2,7 km/h (1 Bft)
09.03.2015 16:10 11,6 C 1,0 C 32 % 42 % 1026,7 hPa 0,0 l/m 0,6 km/h (0 Bft) N-NO 22 -4,5 C 13,2 C 1,9 km/h (1 Bft)
09.03.2015 16:15 11,8 C 1,0 C 33 % 43 % 1026,5 hPa 0,0 l/m 0,6 km/h (0 Bft) O-NO 67 -3,9 C 13,2 C 1,6 km/h (1 Bft)
09.03.2015 16:20 12,2 C 1,0 C 33 % 43 % 1026,5 hPa 0,0 l/m 0,6 km/h (0 Bft) N-NW 337 -3,6 C 13,8 C 0,0 km/h (0 Bft)
09.03.2015 16:25 12,0 C 1,0 C 33 % 43 % 1026,5 hPa 0,0 l/m 0,3 km/h (0 Bft) N-NO 22 -3,8 C 14,2 C 5,0 km/h (1 Bft)
09.03.2015 16:30 11,6 C 1,0 C 33 % 43 % 1026,5 hPa 0,0 l/m 0,6 km/h (0 Bft) O-NO 67 -4,1 C 13,9 C 0,0 km/h (0 Bft)
09.03.2015 16:35 11,4 C 1,0 C 34 % 43 % 1026,4 hPa 0,0 l/m 1,0 km/h (0 Bft) O-NO 67 -3,9 C 13,9 C 0,0 km/h (0 Bft)
09.03.2015 16:40 11,3 C 1,0 C 34 % 43 % 1026,4 hPa 0,0 l/m 1,3 km/h (1 Bft) N-NO 22 -4,0 C 14,1 C 3,4 km/h (1 Bft)
09.03.2015 16:45 11,1 C 1,0 C 35 % 44 % 1026,4 hPa 0,0 l/m 1,3 km/h (1 Bft) N-NW 337 -3,8 C 13,7 C 0,0 km/h (0 Bft)
09.03.2015 16:50 10,7 C 1,0 C 36 % 45 % 1026,4 hPa 0,0 l/m 0,2 km/h (0 Bft) O-NO 67 -3,7 C 13,2 C 0,0 km/h (0 Bft)
09.03.2015 16:55 10,3 C 1,0 C 36 % 45 % 1026,3 hPa 0,0 l/m 0,0 km/h (0 Bft) N-NO 22 -4,1 C 12,6 C 0,0 km/h (0 Bft)
09.03.2015 17:00 10,1 C 1,0 C 37 % 46 % 1026,3 hPa 0,0 l/m 0,0 km/h (0 Bft) O-NO 67 -3,9 C 11,6 C 0,0 km/h (0 Bft)
09.03.2015 17:05 10,1 C 1,0 C 37 % 46 % 1026,3 hPa 0,0 l/m 0,3 km/h (0 Bft) N-NO 22 -3,9 C 11,2 C 0,0 km/h (0 Bft)
09.03.2015 17:10 9,7 C 1,0 C 38 % 46 % 1026,3 hPa 0,0 l/m 0,3 km/h (0 Bft) O-NO 67 -3,9 C 10,7 C 0,0 km/h (0 Bft)
09.03.2015 17:15 9,7 C 0,9 C 38 % 47 % 1026,2 hPa 0,0 l/m 0,2 km/h (0 Bft) O-NO 67 -3,9 C 10,4 C 0,0 km/h (0 Bft)
09.03.2015 17:20 9,6 C 0,9 C 39 % 47 % 1026,2 hPa 0,0 l/m 0,5 km/h (0 Bft) O 90 -3,7 C 9,9 C 0,0 km/h (0 Bft)
09.03.2015 17:25 9,5 C 0,9 C 39 % 47 % 1026,2 hPa 0,0 l/m 0,6 km/h (0 Bft) O 90 -3,7 C 9,7 C 0,0 km/h (0 Bft)
09.03.2015 17:30 9,2 C 0,9 C 38 % 46 % 1026,2 hPa 0,0 l/m 0,2 km/h (0 Bft) O 90 -4,4 C 9,2 C 1,9 km/h (1 Bft)
09.03.2015 17:35 9,0 C 0,9 C 38 % 46 % 1026,4 hPa 0,0 l/m 0,5 km/h (0 Bft) O 90 -4,5 C 8,8 C 0,0 km/h (0 Bft)
09.03.2015 17:40 8,6 C 0,9 C 38 % 46 % 1026,4 hPa 0,0 l/m 0,6 km/h (0 Bft) O 90 -4,9 C 8,3 C 2,7 km/h (1 Bft)
09.03.2015 17:45 8,6 C 0,9 C 38 % 46 % 1026,4 hPa 0,0 l/m 1,0 km/h (0 Bft) O-SO 112 -4,9 C 8,1 C 2,4 km/h (1 Bft)
09.03.2015 17:50 7,9 C 0,9 C 39 % 47 % 1026,4 hPa 0,0 l/m 0,8 km/h (0 Bft) O-SO 112 -5,2 C 7,9 C 0,0 km/h (0 Bft)
09.03.2015 17:55 7,5 C 1,0 C 39 % 47 % 1026,5 hPa 0,0 l/m 0,6 km/h (0 Bft) SO 135 -5,5 C 7,3 C 2,7 km/h (1 Bft)
09.03.2015 18:00 7,6 C 1,0 C 40 % 49 % 1026,5 hPa 0,0 l/m 1,9 km/h (1 Bft) SO 135 -5,1 C 7,0 C 3,5 km/h (1 Bft)
09.03.2015 18:05 7,6 C 1,0 C 41 % 49 % 1026,5 hPa 0,0 l/m 2,9 km/h (1 Bft) SO 135 -4,8 C 7,0 C 3,5 km/h (1 Bft)
09.03.2015 18:10 6,9 C 1,0 C 43 % 51 % 1026,5 hPa 0,0 l/m 2,3 km/h (1 Bft) SO 135 -4,8 C 6,8 C 2,1 km/h (1 Bft)
09.03.2015 18:15 6,5 C 1,0 C 45 % 53 % 1026,6 hPa 0,0 l/m 1,4 km/h (1 Bft) SO 135 -4,6 C 6,4 C 1,6 km/h (1 Bft)
09.03.2015 18:20 6,6 C 1,0 C 47 % 54 % 1026,6 hPa 0,0 l/m 1,4 km/h (1 Bft) SO 135 -3,9 C 6,0 C 2,1 km/h (1 Bft)
09.03.2015 18:25 6,6 C 1,0 C 48 % 54 % 1026,6 hPa 0,0 l/m 1,9 km/h (1 Bft) SO 135 -3,6 C 5,9 C 1,6 km/h (1 Bft)
09.03.2015 18:30 5,2 C 1,0 C 49 % 55 % 1026,6 hPa 0,0 l/m 0,8 km/h (0 Bft) SO 135 -4,6 C 5,2 C 0,0 km/h (0 Bft)
09.03.2015 18:35 5,1 C 0,9 C 52 % 57 % 1026,7 hPa 0,0 l/m 0,0 km/h (0 Bft) O-SO 112 -3,9 C 4,5 C 0,0 km/h (0 Bft)
09.03.2015 18:40 5,3 C 0,9 C 53 % 58 % 1026,7 hPa 0,0 l/m 0,6 km/h (0 Bft) SO 135 -3,5 C 4,3 C 1,9 km/h (1 Bft)
09.03.2015 18:45 4,7 C 0,9 C 54 % 58 % 1026,7 hPa 0,0 l/m 0,8 km/h (0 Bft) O-SO 112 -3,8 C 4,2 C 0,0 km/h (0 Bft)
09.03.2015 18:50 4,4 C 0,9 C 56 % 58 % 1026,7 hPa 0,0 l/m 0,3 km/h (0 Bft) O-SO 112 -3,6 C 3,7 C 0,0 km/h (0 Bft)
09.03.2015 18:55 5,0 C 0,9 C 55 % 59 % 1026,8 hPa 0,0 l/m 1,0 km/h (0 Bft) SO 135 -3,3 C 3,6 C 3,7 km/h (1 Bft)
09.03.2015 19:00 4,8 C 0,9 C 55 % 59 % 1026,8 hPa 0,0 l/m 1,9 km/h (1 Bft) O-SO 112 -3,5 C 3,9 C 0,0 km/h (0 Bft)
09.03.2015 19:05 3,8 C 0,9 C 56 % 59 % 1026,8 hPa 0,0 l/m 1,4 km/h (1 Bft) O-SO 112 -4,2 C 3,4 C 1,8 km/h (1 Bft)
09.03.2015 19:10 4,0 C 0,9 C 57 % 60 % 1026,8 hPa 0,0 l/m 1,1 km/h (1 Bft) SO 135 -3,7 C 2,8 C 4,2 km/h (1 Bft)
09.03.2015 19:15 4,4 C 0,9 C 57 % 60 % 1027,2 hPa 0,0 l/m 2,1 km/h (1 Bft) SO 135 -3,4 C 3,1 C 3,1 km/h (1 Bft)
09.03.2015 19:20 4,8 C 0,9 C 56 % 61 % 1027,2 hPa 0,0 l/m 3,4 km/h (1 Bft) SO 135 -3,2 C 3,4 C 3,9 km/h (1 Bft)
09.03.2015 19:25 4,7 C 0,9 C 56 % 60 % 1027,2 hPa 0,0 l/m 3,2 km/h (1 Bft) SO 135 -3,3 C 3,6 C 3,4 km/h (1 Bft)
09.03.2015 19:30 4,3 C 0,9 C 56 % 61 % 1027,2 hPa 0,0 l/m 3,5 km/h (1 Bft) SO 135 -3,7 C 3,4 C 4,8 km/h (1 Bft)
09.03.2015 19:35 4,2 C 0,9 C 56 % 62 % 1027,4 hPa 0,0 l/m 3,9 km/h (1 Bft) O-SO 112 -3,8 C 3,2 C 3,7 km/h (1 Bft)
09.03.2015 19:40 3,8 C 0,9 C 57 % 63 % 1027,4 hPa 0,0 l/m 4,0 km/h (1 Bft) SO 135 -3,9 C 2,5 C 5,1 km/h (1 Bft)
09.03.2015 19:45 3,9 C 0,9 C 57 % 63 % 1027,4 hPa 0,0 l/m 4,2 km/h (1 Bft) S-SO 157 -3,8 C 2,5 C 5,6 km/h (1 Bft)
09.03.2015 19:50 3,9 C 0,9 C 58 % 64 % 1027,4 hPa 0,0 l/m 4,5 km/h (1 Bft) SO 135 -3,6 C 2,3 C 4,7 km/h (1 Bft)
09.03.2015 19:55 3,6 C 0,9 C 58 % 64 % 1027,4 hPa 0,0 l/m 4,5 km/h (1 Bft) SO 135 -3,9 C 2,3 C 4,7 km/h (1 Bft)
09.03.2015 20:00 3,4 C 0,9 C 58 % 65 % 1027,4 hPa 0,0 l/m 4,2 km/h (1 Bft) SO 135 -4,1 C 2,3 C 5,3 km/h (1 Bft)
09.03.2015 20:05 3,0 C 0,9 C 58 % 66 % 1027,4 hPa 0,0 l/m 4,8 km/h (1 Bft) SO 135 -4,4 C 1,6 C 5,8 km/h (2 Bft)
09.03.2015 20:10 2,7 C 0,9 C 59 % 67 % 1027,4 hPa 0,0 l/m 4,7 km/h (1 Bft) SO 135 -4,5 C 1,1 C 4,8 km/h (1 Bft)
09.03.2015 20:15 3,3 C 0,9 C 59 % 67 % 1027,4 hPa 0,0 l/m 4,7 km/h (1 Bft) SO 135 -3,9 C 1,1 C 5,0 km/h (1 Bft)
09.03.2015 20:20 3,0 C 0,9 C 59 % 67 % 1027,4 hPa 0,0 l/m 4,8 km/h (1 Bft) S-SO 157 -4,2 C 1,3 C 4,8 km/h (1 Bft)
09.03.2015 20:25 2,5 C 0,9 C 61 % 67 % 1027,4 hPa 0,0 l/m 4,5 km/h (1 Bft) S-SO 157 -4,2 C 1,3 C 4,8 km/h (1 Bft)
09.03.2015 20:30 2,5 C 0,9 C 61 % 68 % 1027,4 hPa 0,0 l/m 3,4 km/h (1 Bft) S-SO 157 -4,2 C 1,4 C 2,4 km/h (1 Bft)
09.03.2015 20:35 2,5 C 0,9 C 61 % 68 % 1027,2 hPa 0,0 l/m 2,9 km/h (1 Bft) SO 135 -4,2 C 1,4 C 2,6 km/h (1 Bft)
09.03.2015 20:40 2,5 C 0,9 C 68 % 68 % 1027,2 hPa 0,0 l/m 1,3 km/h (1 Bft) SO 135 -2,8 C 1,3 C 0,0 km/h (0 Bft)
09.03.2015 20:45 2,5 C 0,9 C 68 % 67 % 1027,2 hPa 0,0 l/m 0,5 km/h (0 Bft) SO 135 -2,8 C 1,1 C 0,0 km/h (0 Bft)
09.03.2015 20:50 2,5 C 1,0 C 67 % 67 % 1027,2 hPa 0,0 l/m 0,0 km/h (0 Bft) SO 135 -3,0 C 0,4 C 0,0 km/h (0 Bft)
09.03.2015 20:55 2,5 C 1,0 C 67 % 67 % 1027,3 hPa 0,0 l/m 0,2 km/h (0 Bft) SO 135 -3,0 C 0,1 C 0,0 km/h (0 Bft)
09.03.2015 21:00 2,5 C 0,9 C 67 % 68 % 1027,3 hPa 0,0 l/m 0,2 km/h (0 Bft) SO 135 -3,0 C -0,3 C 0,0 km/h (0 Bft)
09.03.2015 21:05 2,5 C 0,9 C 68 % 68 % 1027,3 hPa 0,0 l/m 0,0 km/h (0 Bft) SO 135 -2,8 C -0,5 C 0,0 km/h (0 Bft)
09.03.2015 21:10 2,5 C 0,9 C 68 % 68 % 1027,3 hPa 0,0 l/m 0,0 km/h (0 Bft) SO 135 -2,8 C -1,0 C 0,0 km/h (0 Bft)
09.03.2015 21:15 2,5 C 0,9 C 68 % 68 % 1027,0 hPa 0,0 l/m 0,0 km/h (0 Bft) SO 135 -2,8 C -1,3 C 0,0 km/h (0 Bft)
09.03.2015 21:20 2,5 C 0,9 C 68 % 69 % 1027,0 hPa 0,0 l/m 0,0 km/h (0 Bft) SO 135 -2,8 C -1,7 C 0,0 km/h (0 Bft)
09.03.2015 21:25 2,5 C 0,9 C 69 % 69 % 1027,0 hPa 0,0 l/m 0,0 km/h (0 Bft) S-SO 157 -2,6 C -2,0 C 0,0 km/h (0 Bft)
09.03.2015 21:30 2,5 C 0,9 C 69 % 69 % 1027,0 hPa 0,0 l/m 0,0 km/h (0 Bft) S 180 -2,6 C -2,1 C 0,0 km/h (0 Bft)
09.03.2015 21:35 2,5 C 0,9 C 69 % 69 % 1026,9 hPa 0,0 l/m 0,0 km/h (0 Bft) S 180 -2,6 C -2,2 C 0,0 km/h (0 Bft)
09.03.2015 21:40 2,5 C 0,9 C 69 % 70 % 1026,9 hPa 0,0 l/m 0,0 km/h (0 Bft) SO 135 -2,6 C -2,2 C 0,0 km/h (0 Bft)
09.03.2015 21:45 2,5 C 0,9 C 70 % 70 % 1026,9 hPa 0,0 l/m 0,0 km/h (0 Bft) SO 135 -2,4 C -2,2 C 0,0 km/h (0 Bft)
09.03.2015 21:50 2,5 C 0,9 C 70 % 70 % 1026,9 hPa 0,0 l/m 0,0 km/h (0 Bft) SO 135 -2,4 C -2,5 C 0,0 km/h (0 Bft)
09.03.2015 21:55 2,5 C 0,9 C 70 % 71 % 1026,9 hPa 0,0 l/m 0,0 km/h (0 Bft) SO 135 -2,4 C -2,6 C 0,0 km/h (0 Bft)
09.03.2015 22:00 2,5 C 0,9 C 71 % 71 % 1026,9 hPa 0,0 l/m 0,0 km/h (0 Bft) SO 135 -2,2 C -2,6 C 0,0 km/h (0 Bft)
09.03.2015 22:05 2,5 C 0,9 C 71 % 71 % 1026,9 hPa 0,0 l/m 0,0 km/h (0 Bft) SO 135 -2,2 C -2,7 C 0,0 km/h (0 Bft)
09.03.2015 22:10 2,5 C 0,9 C 71 % 72 % 1026,9 hPa 0,0 l/m 0,0 km/h (0 Bft) SO 135 -2,2 C -2,8 C 0,0 km/h (0 Bft)
09.03.2015 22:15 2,5 C 0,9 C 72 % 72 % 1026,7 hPa 0,0 l/m 0,0 km/h (0 Bft) SO 135 -2,0 C -2,9 C 0,0 km/h (0 Bft)
09.03.2015 22:20 2,5 C 0,9 C 72 % 72 % 1026,7 hPa 0,0 l/m 0,0 km/h (0 Bft) SO 135 -2,0 C -3,1 C 0,0 km/h (0 Bft)
09.03.2015 22:25 2,5 C 0,9 C 72 % 73 % 1026,7 hPa 0,0 l/m 0,0 km/h (0 Bft) SO 135 -2,0 C -3,2 C 0,0 km/h (0 Bft)
09.03.2015 22:30 2,5 C 0,9 C 73 % 73 % 1026,7 hPa 0,0 l/m 0,0 km/h (0 Bft) SO 135 -1,8 C -3,2 C 0,0 km/h (0 Bft)
09.03.2015 22:35 2,5 C 0,9 C 73 % 73 % 1026,7 hPa 0,0 l/m 0,0 km/h (0 Bft) SO 135 -1,8 C -3,2 C 0,0 km/h (0 Bft)
09.03.2015 22:40 2,5 C 0,9 C 73 % 73 % 1026,7 hPa 0,0 l/m 0,0 km/h (0 Bft) SO 135 -1,8 C -3,3 C 0,0 km/h (0 Bft)
09.03.2015 22:45 2,5 C 0,9 C 73 % 73 % 1026,7 hPa 0,0 l/m 0,0 km/h (0 Bft) SO 135 -1,8 C -3,5 C 0,0 km/h (0 Bft)
09.03.2015 22:50 2,5 C 0,9 C 73 % 74 % 1026,7 hPa 0,0 l/m 0,0 km/h (0 Bft) SO 135 -1,8 C -3,6 C 0,0 km/h (0 Bft)
09.03.2015 22:55 2,5 C 0,9 C 74 % 74 % 1026,6 hPa 0,0 l/m 0,0 km/h (0 Bft) SO 135 -1,7 C -3,8 C 0,0 km/h (0 Bft)
09.03.2015 23:00 2,5 C 0,9 C 74 % 74 % 1026,6 hPa 0,0 l/m 0,0 km/h (0 Bft) SO 135 -1,7 C -3,8 C 0,0 km/h (0 Bft)
09.03.2015 23:05 2,5 C 0,9 C 74 % 74 % 1026,6 hPa 0,0 l/m 0,0 km/h (0 Bft) SO 135 -1,7 C -3,7 C 0,0 km/h (0 Bft)
09.03.2015 23:10 2,5 C 0,9 C 74 % 75 % 1026,6 hPa 0,0 l/m 0,0 km/h (0 Bft) SO 135 -1,7 C -3,7 C 0,0 km/h (0 Bft)
09.03.2015 23:15 -2,4 C 0,9 C 74 % 75 % 1026,9 hPa 0,0 l/m 0,0 km/h (0 Bft) SO 135 -6,4 C -3,8 C 0,0 km/h (0 Bft)
09.03.2015 23:20 -2,4 C 0,9 C 74 % 76 % 1026,9 hPa 0,0 l/m 0,2 km/h (0 Bft) SO 135 -6,4 C -3,9 C 2,1 km/h (1 Bft)
09.03.2015 23:25 -2,4 C 0,9 C 74 % 77 % 1026,9 hPa 0,0 l/m 0,5 km/h (0 Bft) O-SO 112 -6,4 C -3,4 C 0,0 km/h (0 Bft)
09.03.2015 23:30 -2,4 C 0,9 C 77 % 76 % 1026,9 hPa 0,0 l/m 0,5 km/h (0 Bft) O-SO 112 -5,9 C -3,2 C 0,0 km/h (0 Bft)
09.03.2015 23:35 -2,4 C 0,9 C 76 % 76 % 1026,8 hPa 0,0 l/m 0,0 km/h (0 Bft) NO 45 -6,0 C -3,4 C 0,0 km/h (0 Bft)
09.03.2015 23:40 -2,4 C 0,9 C 76 % 76 % 1026,8 hPa 0,0 l/m 0,0 km/h (0 Bft) NO 45 -6,0 C -3,5 C 0,0 km/h (0 Bft)
09.03.2015 23:45 -2,4 C 0,9 C 76 % 76 % 1026,8 hPa 0,0 l/m 0,0 km/h (0 Bft) O-NO 67 -6,0 C -3,5 C 0,0 km/h (0 Bft)
09.03.2015 23:50 -2,4 C 0,9 C 76 % 77 % 1026,8 hPa 0,0 l/m 0,2 km/h (0 Bft) SO 135 -6,0 C -3,4 C 0,0 km/h (0 Bft)
09.03.2015 23:55 -2,4 C 0,9 C 77 % 78 % 1026,6 hPa 0,0 l/m 0,3 km/h (0 Bft) O 90 -5,9 C -3,3 C 0,0 km/h (0 Bft)
_ Min-Zeit 02:45 12:20 15:50 15:40 03:50 - 23:45 - - 04:25 02:50 23:55
Minimum _ -3,1 C 0,8 C 30 % 41 % 1024,9 hPa - 0,0 km/h (0 Bft) - - -7,2 C -4,4 C 0,0 km/h (0 Bft)
_ Max-Zeit 13:40 20:55 03:05 23:55 10:50 23:55 20:20 - - 10:30 11:35 03:55
Maximum _ 19,1 C 1,0 C 78 % 78 % 1029,9 hPa 0,0 l/m 4,8 km/h
S-SO (1 Bft)
- - 2,3 C 24,2 C 9,3 km/h
SO (2 Bft)
Durchschnitt _ 5,2 C 0,9 C 58 % 63 % 1026,9 hPa #0,0 l/m 0,9 km/h (0 Bft) SO - -3,4 C 5,6 C 1,2 km/h (1 Bft)